Content
SEND FEEDBACK

Daily
Averages
Monthly
Summary
United States of America

DEDEDO, GUAM


Home > North America > United States > Guam
Elevation: 364 feet     Latitude: 13 33N     Longitude: 144 49E

WEATHER
 
SELECT A DAY
Number of Records: 209,308;   Date Range: 1/1/95 - 9/18/14
 
SHARE

PRINT THIS DATA

[ ← Previous Day ]
WEATHER ALMANAC - MARCH 14, 2013
[ Next Day → ]
[ °C ]   °F
Weather ElementAverageHighLow
Temperature82.5 °F90 °F (12:54 pm)77 °F (6:54 am)
Dewpoint71 °F73.9 °F (1:54 am)68 °F (3:54 pm)
Humidity69.2 %88 % (6:54 am)51 % (3:54 pm)
Barometer29.87 in29.93 in (10:54 pm)29.81 in (2:54 pm)
Wind Speed11.5 mph17.3 mph (10:54 am)
Wind Gust21.9 mph (11:54 am)
Weather ElementAverage
Visibility10 mi
Wind DirectionENE (57 °)

Weather ElementTotal
Precipitation0.01 in
Cooling Degree Days18.5 (Base 65)
Growing Degree Days33.5 (Base 50)
Averaged from 23 records on March 14, 2013
WEATHER CONDITIONS BREAKOUT
WIND DIRECTION BREAKOUT
WEATHER BY HOUR - MARCH 14, 2013
[ °C ]   °F
Local TimeTemperatureDewpointHumidityBarometerVisibilityWind DirectionWind SpeedGust SpeedPrecipitationEventsConditions
1:54 AM78.1 °F73.9 °F87 %29.86 in10.0 miNE (50°)5.8 mph0.01 inMostly Cloudy
2:54 AM78.1 °F73.9 °F87 %29.84 in10.0 miENE (60°)11.5 mph0.00 inScattered Clouds
3:54 AM78.1 °F73.9 °F87 %29.83 in10.0 miENE (70°)9.2 mphMostly Cloudy
4:54 AM78.1 °F72.0 °F81 %29.83 in10.0 miENE (60°)12.7 mphClear
5:54 AM79.0 °F73.0 °F82 %29.85 in10.0 miENE (70°)9.2 mphScattered Clouds
6:54 AM77.0 °F73.0 °F88 %29.86 in10.0 miNE (50°)9.2 mph0.00 inPartly Cloudy
7:54 AM81.0 °F73.0 °F77 %29.88 in10.0 miENE (60°)13.8 mphPartly Cloudy
8:54 AM84.0 °F73.0 °F69 %29.90 in10.0 miENE (70°)13.8 mphScattered Clouds
9:54 AM84.9 °F72.0 °F65 %29.90 in10.0 miENE (60°)12.7 mphMostly Cloudy
10:54 AM87.1 °F70.0 °F57 %29.89 in10.0 miENE (70°)17.3 mphMostly Cloudy
11:54 AM88.0 °F71.1 °F57 %29.87 in10.0 miENE (70°)16.1 mph21.9 mphMostly Cloudy
12:54 PM90.0 °F70.0 °F52 %29.85 in10.0 miENE (60°)16.1 mph20.7 mphScattered Clouds
1:54 PM87.1 °F70.0 °F57 %29.83 in10.0 miENE (70°)13.8 mphMostly Cloudy
2:54 PM88.0 °F69.1 °F53 %29.81 in10.0 miNE (50°)17.3 mphMostly Cloudy
3:54 PM88.0 °F68.0 °F51 %29.81 in10.0 miNNE (30°)16.1 mphPartly Cloudy
4:54 PM87.1 °F70.0 °F57 %29.82 in10.0 miNNE (30°)15.0 mphPartly Cloudy
5:54 PM84.0 °F71.1 °F65 %29.84 in10.0 miNNE (30°)13.8 mphClear
6:54 PM82.0 °F71.1 °F69 %29.86 in10.0 miNE (50°)8.1 mphClear
7:54 PM81.0 °F70.0 °F69 %29.89 in10.0 miENE (70°)5.8 mphClear
8:54 PM80.1 °F69.1 °F69 %29.90 in10.0 miENE (60°)5.8 mphClear
9:54 PM79.0 °F69.1 °F72 %29.92 in10.0 miNE (50°)6.9 mphPartly Cloudy
10:54 PM78.1 °F68.0 °F71 %29.93 in10.0 miENE (60°)5.8 mphClear
11:54 PM80.1 °F69.1 °F69 %29.93 in10.0 miENE (60°)8.1 mphClear
Hourly data recorded from PGUM, located miles away from Dededo, Guam







STORIES FROM OUR PARTNERS